User: anonymous   Login
Location: Nairn
(57.5833°N, 3.8667°W)
Time: 09:07:10
(UTC+00:00)
Language:

CZ-4C R/B - Orbit

View from above orbital plane
View from above orbital plane
View from above satellite
View from above satellite

Ground track
Ground track

The orbit data is extracted from the following two-line orbital elements,

1 39211U 13037D   20293.94321607 +.00000836 +00000-0 +53402-4 0  9993
2 39211 097.9904 067.7765 0124517 144.8285 216.1241 15.05567423397875
Epoch (UTC): 19 October 2020 22:38:13
Eccentricity: 0.0124517
inclination: 97.9904°
perigee height: 463 km
apogee height: 636 km
right ascension of ascending node: 67.7765°
argument of perigee: 144.8285°
revolutions per day: 15.05567423
mean anomaly at epoch: 216.1241°
orbit number at epoch: 39787

The dashed part of the orbit path shows where the satellite is in the earth's shadow,  

DLR